Showing default

NINGXIA-1 2, 44780

Orbit data source: Space-Track

NINGXIA-1 2, 44780 is a Chinese payload satellite in LEO that was launched on Wed, 13 Nov 2019 UTC via a CHANG ZHENG 6 launch vehicle from the Taiyaun Space Center, China (TSC). Payload-class satellites include a variety of spacecraft equipped with specific instruments for various scientific and technological missions. These include communications satellites like Starlink; space stations such as the ISS; scientific satellites like the Hubble; Earth observation satellites from companies like Planet Labs, Umbra, and HawkEye 360; GPS; miniature CubeSats for education and research; and military/defense satellites.

Loading next visibility...
Identifier
44780, 2019-076B
Orbit
LEO
Last TLE update
5 hours ago
Origin
Manufacturer
DFH
Mission
Operational Commercial Sigint
Bus & Motor
NX-1, Unknown motor
Mass
~100 kg wet, ~100 kg dry
Launch date (UTC)
2019-11-13 (5 years ago)
Launch vehicle
CHANG ZHENG 6
Launch site
Taiyaun Space Center, China (TSC)
Object type
Payload
Rocket body
Debris
Shape & HBR
Box + 2 Pan, Unknown HBR
Radar Cross Section
0.166 m², Medium (>0.1 m² and < 1m²)

Expand to show TLE details & history

TLE from 5 hours ago
0 NINGXIA-1 2
1 44780U 19076B   25129.19331200 -.00000061  00000-0  44743-4 0  9998
2 44780  45.0079 185.3613 0005850  29.7985 330.3181 14.01937056281168
Epoch: 2025-05-09T04:38Z
Definitive object data (Epoch: 2025-05-09T04:38:22.156Z)
Latitude
-0.00006°
Longitude
-111.48404°
Altitude
883.403 km
Speed
7.414 km/s
True Right ascension
12h 21m 26s
True Declination
0° 00' 00"
Sunlit
Object was in full shadow at TLE epoch
Visualization TLE readout
Latitude
-25.06392°
Longitude
-140.12267°
Altitude
891.883 km
Speed
7.407 km/s
Apparent Right ascension
08h 29m 44s
Apparent Declination
-37° 05' 35"
Sunlit
Object is in daylight
Visualization observer readout
Local Sidereal Time
17:45:08
Azimuth
261.637° W
Elevation
-57.961°
Doppler factor
1
Orbital elements
Apogee altitude
892.865 km
Perigee altitude
884.363 km
Semi-major axis
7,266.751 km
Eccentricity
0.000585
Inclination
45.0079°
RAAN
185.3613°
Arg. of periapsis
29.7985°
True anomaly
330.28488°
Mean anomaly
330.3181°
Eccentric anomaly
330.30149°
Mean motion
3.50375 °/min
BSTAR
0.000044743
Orbital period
102.75 mins
Loading maneuver chart data...
Loading SW <> Apogee altitude chart data...
Loading historical data...
Loading historical data...
Loading historical data...
Loading historical data...
Loading historical data...
Loading historical data...
Loading historical data...
Other satellites on launch #76 in the year 2019 (2019-11-13 UTC)

NINGXIA-1 2 Visibility forecast

Observer location: undefined°, undefined°

Span
Click to sort rows by Start time (UTC) header in descending order
Start Az.
Max El. time (UTC)
Max El. Az.
Max El.
End time (UTC)
End Az.
11 mins2025-05-09 10:06:47.710Z285.738° WNW2025-05-09 10:11:47.710Z350.945° N38.325°2025-05-09 10:17:47.710Z77.238° E
10 mins2025-05-09 11:55:47.710Z294.797° NW2025-05-09 12:00:47.710Z47.073° ENE44.343°2025-05-09 12:05:47.710Z107.422° ESE
9 mins2025-05-09 13:44:47.710Z272.833° WNW2025-05-09 13:48:47.710Z209.192° SW30.567°2025-05-09 13:53:47.710Z153.487° SSE
10 mins2025-05-10 06:28:47.710Z214.772° SW2025-05-10 06:32:47.710Z158.393° S37.235°2025-05-10 06:38:47.710Z72.542° E
10 mins2025-05-10 08:16:47.710Z264.475° W2025-05-10 08:20:47.710Z320.612° NNW42.161°2025-05-10 08:26:47.710Z66.326° ENE
|